Regional Weather Roundup
Issued by NWS

Home | Current Version | Previous Version | Text Only | Print | Product List | Glossary On
Versions: 1 2 3 4 5 6 7 8 9 10 11 12 13 14 15 16 17 18 19 20 21 22 23 24 25 26 27 28 29 30 31 32 33 34 35 36 37 38 39 40 41 42 43 44 45 46 47 48 49 50
000
ASUS45 KABQ 220010
RWRNM
NEW MEXICO REGIONAL WEATHER ROUNDUP
NATIONAL WEATHER SERVICE ALBUQUERQUE NM
600 PM MDT MON AUG 21 2017

NOTE: "FAIR" MEANS FEW OR NO CLOUDS BELOW 12,000 FEET AGL WITH NO
       SIGNIFICANT WEATHER OR OBSTRUCTIONS TO VISION.

      THIS PRODUCT IS RELEASED AS TWO VERSIONS.  ONE VERSION NEAR
      THE TOP OF THE HOUR CONTAINING PRELIMINARY DATA FROM ALBUQUERQUE
      AND OTHER STATIONS.  A FINAL VERSION WITH ADDITIONAL DATA IS
      ISSUED ABOUT 10 MINUTES AFTER THE HOUR.

NMZ501-503-504-510>518-220100-
NORTHWEST PLATEAU/NORTHCENTRAL MOUNTAINS

CITY           SKY/WX    TMP DP  RH WIND       PRES   REMARKS
FARMINGTON     FAIR      84  45  25 S5        30.15S
6HR MIN TEMP:  72; 6HR MAX TEMP:  86;

LOS ALAMOS     FAIR      70  50  48 SW8       30.30F
SANTA FE       FAIR      74  53  48 MISG      30.23F
6HR MIN TEMP:  65; 6HR MAX TEMP:  75;

TAOS           CLOUDY    70  51  51 E15G21    30.31R THUNDER
ANGEL FIRE     RAIN      55  52  89 NE9       30.44R

$$
NMZ402-403-502-505>509-220100-
WESTCENTRAL MOUNTAINS/SOUTHWEST MOUNTAINS

CITY           SKY/WX    TMP DP  RH WIND       PRES   REMARKS
GALLUP         FAIR      75  48  38 W10       30.25F
6HR MIN TEMP:  69; 6HR MAX TEMP:  79;

GRANTS         CLOUDY    73  48  41 CALM      30.28F
SILVER CITY    PTSUNNY   79  54  41 S8        30.19S

$$
NMZ407-409-411-412-220100-
SOUTHERN DESERTS

CITY           SKY/WX    TMP DP  RH WIND       PRES   REMARKS
DEMING         FAIR      84  60  44 VRB7      30.11F
6HR MIN TEMP:  76; 6HR MAX TEMP:  86;

LAS CRUCES     FAIR      83  59  43 SW9       30.14F
HOLLOMAN AFB   FAIR      83  60  45 SW8       30.12F
ALAMOGORDO     FAIR      84  57  39 SE8       30.13S
T OR C         FAIR      82  57  42 S12       30.13F
6HR MIN TEMP:  77; 6HR MAX TEMP:  85; 6HR PCP:  0.01;


$$
NMZ519>523-220100-
CENTRAL VALLEYS/CENTRAL HIGHLANDS

CITY           SKY/WX    TMP DP  RH WIND       PRES   REMARKS
ALBUQUERQUE    PTSUNNY   77  56  48 VRB3      30.19F
6HR MIN TEMP:  67; 6HR MAX TEMP:  78;

DOUBLE EAGLE   PTSUNNY   75  57  53 CALM      30.22F
MORIARTY ARPT  FAIR      79  51  37 W9        30.24S
6HR MIN TEMP:  66; 6HR MAX TEMP:  80;

CLINES CORNERS PTSUNNY   72  50  45 SW7       30.29S
6HR MIN TEMP:  64; 6HR MAX TEMP:  73;

BELEN          FAIR      78  54  43 CALM      30.18S
6HR MIN TEMP:  68; 6HR MAX TEMP:  79;

SOCORRO        FAIR      82  53  35 CALM      30.13F
6HR MIN TEMP:  72; 6HR MAX TEMP:  82;


$$
NMZ524>526-539-540-220100-
SOUTHCENTRAL MOUNTAINS

CITY           SKY/WX    TMP DP  RH WIND       PRES   REMARKS
RUIDOSO        CLOUDY    73  54  49 S12       30.30F

$$
NMZ527>531-220100-
NORTHEAST HIGHLANDS/NORTHEAST PLAINS

CITY           SKY/WX    TMP DP  RH WIND       PRES   REMARKS
LAS VEGAS      PTSUNNY   66  49  54 NE20G25   30.29R
6HR MIN TEMP:  64; 6HR MAX TEMP:  73;

RATON          FAIR      75  52  44 S9        30.21R
6HR MIN TEMP:  67; 6HR MAX TEMP:  80;

CLAYTON        FAIR      78  61  55 S15       30.13S
6HR MIN TEMP:  71; 6HR MAX TEMP:  82;


$$
NMZ532>537-220100-
EASTCENTRAL PLAINS

CITY           SKY/WX    TMP DP  RH WIND       PRES   REMARKS
SANTA ROSA     FAIR      73  63  70 SE12      30.14F
TUCUMCARI      PTSUNNY   81  63  54 S10       30.08R
6HR MIN TEMP:  76; 6HR MAX TEMP:  88;

CANNON AFB     FAIR      79  65  61 S8        30.15S
6HR MIN TEMP:  71; 6HR MAX TEMP:  80; 6HR PCP: TRACE;

CLOVIS AIRPORT FAIR      78  64  61 S10       30.15R

$$
NMZ028-029-538-220100-
SOUTHEAST PLAINS

CITY           SKY/WX    TMP DP  RH WIND       PRES   REMARKS
ROSWELL        FAIR      78  67  68 SW6       30.08F
6HR MIN TEMP:  77; 6HR MAX TEMP:  87; 6HR PCP: TRACE;

ARTESIA        FAIR      84  66  54 SE15G24   30.07F THUNDER
CARLSBAD       FAIR      84  68  58 S12       30.05F
6HR MIN TEMP:  76; 6HR MAX TEMP:  85;

HOBBS          SUNNY     84  61  45 SW12G18   30.11F


$$




USA.gov is the U.S. government's official web portal to all federal, state and local government web resources and services.